星链-36605(STARLINK-36605)

导读

STARLINK-36605是美国太空探索技术公司Starlink星链互联网卫星星座中的一颗卫星,于2026年1月29日发射。该卫星属于星链项目低轨通信卫星组网部署任务,星链系统旨在为全球提供高速低延迟宽带互联网服务,这颗卫星加入星座后将进一步扩充星链网络规模,提升服务覆盖能力与通信质量。

Basic Information
目录编号:
67604
目录名称:
STARLINK-36605
国际标识:
2026-018R
轨道中心:
EARTH
卫星名称:
星链-36605
卫星全名:
星链-36605(STARLINK-36605)
卫星状态:
在轨 (已飞行218 天)
发射日期:
2026-01-29 UTC
国别 :
美国 (US)
星等 :
--
Orbit Information
数据来源 国际轨道数据
星历时间: 2026-09-03T23:05:51+0800
16小时前
查看轨道信息
半长轴: 6843.64km
偏心率: 0.0001244
轨道倾角: 97.286°
近地点辐角 80.101°
升交点赤经 310.309°
平近点角 280.037°
近地点: 464.651km
远地点: 466.355km
周期: 93.905分钟
每日圈数: 15.334588
Detailed Information
固有亮度:
5
最大亮度:
2.5
卫星平台:
Starlink V1.0
覆盖范围:
全球
运营商:
太空探索技术公司
运营商所在国:
美国
制造商(研发单位):
太空探索技术公司
制造商所在国:
美国
使用方式:
暂无
Satellite Introduction
Starlink 计划是 SpaceX 推出的全球卫星互联网项目,通过发射低轨道卫星,为全球尤其是偏远地区提供高速、低延迟的互联网服务。自 2019 年起,Starlink 已部署数千颗卫星,旨在缩小全球数字鸿沟,推动互联网普及。该项目还为军事、航空等行业提供通信支持,带来广泛经济效益。
2D Orbit Map
3D Orbit Map
Orbit Altitude Analysis Chart
Orbit Inclination Analysis Chart
Orbit Comprehensive Analysis Chart
View Comprehensive Chart
Conjunction Data List
Event ID Objects TCA Miss Dist (km) Collision Risk Probability Collision Risk Index (CRI) Action
CDM_260904-000603-830206-760423
2026-09-04T
00:06:34+0000
1.411 km
极远距离
3.019366E-6 低风险 0.45
CDM_260904-115106-760406-970522
2026-09-04T
11:51:12+0000
1.811 km
极远距离
1.535197E-6 低风险 0.39
CDM_260904-103205-324806-760421
2026-09-04T
10:32:03+0000
2.961 km
极远距离
1.346365E-6 低风险 0.38
CDM_260904-093006-760406-970521
2026-09-04T
09:30:16+0000
1.965 km
极远距离
1.251684E-6 低风险 0.37
CDM_260904-101706-760406-970521
2026-09-04T
10:17:15+0000
1.970 km
极远距离
1.246401E-6 低风险 0.37
CDM_260831-045005-286606-760422
2026-08-31T
04:50:43+0000
2.257 km
极远距离
1.223889E-6 低风险 0.37
CDM_260906-105904-814006-760421
2026-09-06T
10:59:17+0000
2.901 km
极远距离
1.196206E-6 低风险 0.37
CDM_260904-110406-760406-970522
2026-09-04T
11:04:13+0000
2.096 km
极远距离
1.082434E-6 低风险 0.36
CDM_260904-103206-582906-760422
2026-09-04T
10:32:36+0000
2.972 km
极远距离
8.636066E-7 极低风险 0.34